Regional Weather Roundup
Issued by NWS

Home | Current Version | Previous Version | Text Only | Print | Product List | Glossary Off
Versions: 1 2 3 4 5 6 7 8 9 10 11 12 13 14 15 16 17 18 19 20 21 22 23 24 25 26 27 28 29 30 31 32 33 34 35 36 37 38 39 40 41 42 43 44 45 46 47 48 49 50

000
ASUS44 KOUN 030510
RWROK

WEATHER ROUNDUP FOR OKLAHOMA
NATIONAL WEATHER SERVICE NORMAN OK
1100 PM CST FRI DEC 02 2016

NOTE: "FAIR" INDICATES FEW OR NO CLOUDS BELOW 12,000 FEET WITH NO
      SIGNIFICANT WEATHER AND/OR OBSTRUCTIONS TO VISIBILITY.

OKZ001>007-009>012-014-015-017-030600-
NORTHWEST OKLAHOMA AND THE PANHANDLE

CITY           SKY/WX    TMP DP  RH WIND       PRES   REMARKS
ENID/WOODRING  DRIZZLE   48  32  53 SE5       30.26R
$$

OKZ016-021>023-033>039-044-045-030600-
SOUTHWEST OKLAHOMA

CITY           SKY/WX    TMP DP  RH WIND       PRES   REMARKS
LAWTON/REGL    CLOUDY    47  44  90 NE8       30.20F
LAWTON/FT SILL CLOUDY    46  46 100 NE8       30.19S
FREDERICK      CLOUDY    48  46  93 NE8       30.16F
CLINTON        LGT RAIN  42  40  92 N10       30.23F FOG
HOBART         CLOUDY    44  42  93 E9        30.21F
ALTUS AFB      CLOUDY    44  41  89 NE14      30.18F
$$

OKZ018>020-024>031-030600-
CENTRAL OKLAHOMA

CITY           SKY/WX    TMP DP  RH WIND       PRES   REMARKS
OKLAHOMA CITY  LGT RAIN  47  45  93 N9        30.25S
OKC/WILEY POST LGT RAIN  45  43  93 CALM      30.26S
OKC/TINKER AFB DRIZZLE   47  45  93 N5        30.25R
GUTHRIE        LGT RAIN  46  44  93 CALM      30.26F FOG
$$

OKZ008-013-054>072-030600-
NORTHEAST OKLAHOMA

CITY           SKY/WX    TMP DP  RH WIND       PRES   REMARKS
TULSA/JONES    CLOUDY    52  37  56 N5        30.24
PONCA CITY     CLOUDY    48  25  40 NE12      30.26
MUSKOGEE       CLOUDY    53  34  48 CALM      30.25R
$$

OKZ032-040>043-046>053-073>077-030600-
SOUTH CENTRAL/SOUTHEAST OKLAHOMA

CITY           SKY/WX    TMP DP  RH WIND       PRES   REMARKS
ARDMORE/DWNTWN LGT RAIN  46  43  87 NE3       30.21F
MCALESTER      LGT RAIN  54  35  48 CALM      30.23R
$$




USA.gov is the U.S. government's official web portal to all federal, state and local government web resources and services.